#timestamp,LO_Frequency,Hit,StdDev 
1513897215.5,286047002.3,N
1513897235.4,286047008.3,N
1513897255.2,286047006.5,N
1513897275.0,286047010.2,N
1513897275.9,286047010.2,N
1513897295.8,286047010.2,N
1513897315.6,286047006.8,N
1513897335.4,286047004.7,N
1513897355.2,286047006.1,N
1513897375.1,286047008.4,N
1513897376.0,286047008.4,N
1513897395.8,286047008.4,N
1513897415.6,286047012.4,N
1513897435.5,286047015.2,N
1513897455.3,286047017.4,N
1513897475.1,286047023.5,N
1513897495.9,286047025.8,N
1513897515.7,286047028.9,Y
1513897535.5,286047026.0,P
1513897555.4,286047030.4,P
1513897575.2,286047036.1,P
1513897595.0,286047035.4,Y
1513897595.9,286047035.4,P
1513897615.8,286047014.3,N
1513897635.6,286047021.5,N
1513897655.4,286047023.4,Y
1513897675.3,286047001.0,P
1513897695.1,286047004.1,N
1513897715.8,286047006.8,N
1513897735.7,286047006.0,N
1513897755.5,286047002.6,N
1513897775.3,286047007.1,N
1513897795.2,286047006.5,N
1513897815.9,286047006.6,N
1513897835.7,286047006.2,N
1513897855.6,286047006.2,N
1513897875.4,286047010.0,N
1513897895.2,286047012.6,N
1513897915.1,286047017.1,Y
1513897916.0,286047017.1,P
1513897935.8,286047007.4,N
1513897955.6,286047012.3,N
1513897975.5,286047009.6,N
1513897995.3,286047009.0,N
1513898015.1,286047007.6,N
1513898035.9,286046999.9,N
1513898055.7,286046996.9,N
1513898075.5,286046999.4,N
1513898095.3,286046997.9,N
1513898115.2,286046996.3,N
1513898135.9,286046992.7,N
1513898155.7,286046989.6,N
1513898175.6,286046986.4,N
1513898195.4,286046977.6,N
1513898215.2,286046977.9,N
1513898235.1,286046979.3,N
1513898236.0,286046979.3,N
1513898255.8,286046979.5,N
1513898275.6,286046978.4,N
1513898295.5,286046977.3,N
1513898315.3,286046974.5,N
1513898335.1,286046973.1,N
1513898355.8,286046971.7,N
1513898375.7,286046971.3,N
1513898395.5,286046969.5,N
1513898415.3,286046968.5,N
1513898435.2,286046972.2,N
1513898455.9,286046972.1,N
1513898475.7,286046970.5,N
1513898495.6,286046970.3,N
1513898515.4,286046967.9,N
1513898535.2,286046965.9,N
1513898555.1,286046959.8,Y
1513898556.0,286046959.8,P
1513898575.8,286046977.2,N
1513898595.6,286046975.1,N
1513898615.5,286046978.4,N
1513898635.3,286046976.1,Y
1513898655.1,286047003.2,P
1513898675.9,286047003.4,N
1513898695.7,286047007.5,N
1513898715.5,286047004.5,N
1513898735.4,286047003.0,N
1513898755.2,286047001.8,N
1513898775.0,286047001.3,N
1513898775.9,286047001.3,N
1513898795.7,286047004.8,N
1513898815.6,286047007.3,N
1513898835.4,286047007.5,N
1513898855.2,286047001.3,N
1513898875.1,286047005.5,N
1513898876.0,286047005.5,N
1513898895.8,286047004.7,N
1513898915.6,286047007.2,N
1513898935.5,286047007.6,N
1513898955.3,286047005.5,N
1513898975.1,286047004.6,N
1513898995.9,286047004.8,N
1513899015.7,286047003.7,N
1513899035.5,286047005.5,N
1513899055.4,286047008.5,N
1513899075.2,286047008.8,N
1513899095.0,286047008.3,N
1513899095.9,286047008.3,N
1513899115.8,286047010.7,N
1513899135.6,286047011.8,N
1513899155.4,286047013.2,N
1513899175.3,286047019.8,Y
1513899195.1,286047011.9,P
1513899196.0,286047011.9,P
1513899215.8,286047008.4,N
1513899235.7,286047010.1,Y
1513899255.5,286047000.7,P
1513899275.3,286047000.9,N
1513899295.2,286047000.5,N
1513899315.9,286046999.5,N
1513899335.7,286046997.0,N
1513899355.5,286046993.8,N
1513899375.4,286046996.4,N
1513899395.2,286046991.5,N
1513899415.0,286046992.4,N
1513899415.9,286046992.4,N
1513899435.8,286046992.7,N
1513899455.6,286046990.4,N
1513899475.4,286046992.9,N
1513899495.3,286046991.3,N
1513899515.1,286046991.8,N
1513899516.0,286046991.8,N
1513899535.8,286046992.1,N
1513899555.7,286046996.4,N
1513899575.5,286046990.4,N
1513899595.3,286046987.2,N
1513899615.2,286046988.6,N
1513899635.9,286046985.8,N
1513899655.7,286046984.9,N
1513899675.5,286046987.5,N
1513899695.4,286046986.2,N
1513899715.2,286046988.1,N
1513899735.0,286046988.9,N
1513899735.9,286046988.9,N
1513899755.8,286046993.0,N
1513899775.6,286046991.8,N
1513899795.4,286046994.4,N
1513899815.3,286046997.9,N
1513899835.1,286046996.4,N
1513899836.0,286046996.4,N
1513899855.8,286046994.6,N
1513899875.7,286046992.8,N
1513899895.5,286046990.7,N
1513899915.3,286046994.4,N
1513899935.2,286046992.7,N
1513899955.9,286046992.4,N
1513899975.7,286046997.8,N
1513899995.5,286046991.7,N
1513900015.4,286046992.2,N
1513900035.2,286046990.2,N
1513900055.1,286046988.6,Y
1513900056.0,286046988.6,P
1513900075.8,286046998.7,N
1513900095.6,286046997.8,N
1513900115.4,286046997.2,N
1513900135.3,286046997.0,N
1513900155.1,286047002.8,N
1513900175.8,286047001.3,N
1513900195.7,286047005.3,N
1513900215.5,286047003.7,N
1513900235.3,286046999.8,N
1513900255.2,286046998.8,N
1513900275.9,286046998.0,N
1513900295.7,286046997.1,N
1513900315.6,286046999.2,N
1513900335.4,286046996.7,N
1513900355.2,286046997.2,N
1513900375.0,286046993.3,N
1513900376.0,286046993.3,N
1513900395.8,286046994.2,N
1513900415.6,286046999.6,N
1513900435.4,286046996.8,N
1513900455.3,286046993.3,N
1513900475.1,286046993.1,N
1513900495.8,286046993.9,N
1513900515.7,286046991.7,N
1513900535.5,286046992.1,N
1513900555.3,286046994.1,N
1513900575.2,286046997.3,N
1513900595.9,286046994.9,N
1513900615.7,286046996.6,N
1513900635.5,286047001.0,N
1513900655.4,286046998.2,N
1513900675.2,286047000.3,N
1513900695.0,286047002.8,N
1513900695.9,286047002.8,N
1513900715.8,286047003.6,N
1513900735.6,286047005.9,N
1513900755.4,286047002.0,N
1513900775.3,286047001.1,N
1513900795.1,286046998.2,N
